Helicity
105 113 112 82 68 68 69 70 53 43 29 26 20 17 15 14 13 16 16 14 20 22 23 23 27 24 31 46 49 52 67 93 93 76 88 89 91 76 60 59 41 48 59
102 103 83 61 63 67 60 59 51 37 25 20 18 18 15 15 20 22 25 29 31 28 26 27 35 34 37 47 46 63 84 90 115 81 75 98 89 72 51 37 50 47 66
105 87 64 54 53 46 55 57 42 31 26 24 18 16 15 20 27 31 34 35 32 30 31 33 39 35 39 47 52 69 93 102 95 108 94 101 90 72 62 28 40 38 50
87 55 48 38 40 56 60 50 39 31 25 22 21 22 23 26 32 35 37 34 33 40 38 37 39 45 49 51 51 81 94 89 97 110 105 104 100 81 64 61 56 50 56
61 41 42 48 56 60 57 47 41 31 26 26 27 25 27 31 36 35 39 39 43 43 47 42 64 62 67 63 65 72 84 96 109 104 111 118 113 99 71 76 75 84 52
35 31 52 60 60 54 52 47 44 32 28 28 26 28 31 37 75 46 23 49 49 47 48 54 55 66 64 72 86 85 79 92 96 104 121 116 103 97 97 88 104 102 106
33 37 48 52 54 52 51 49 37 29 33 29 27 28 33 53 71 61 41 47 48 54 51 52 53 81 66 54 68 58 80 110 101 108 101 109 99 85 89 81 77 93 113
37 43 46 49 49 52 53 47 42 34 32 30 31 33 40 63 82 71 49 38 51 58 56 60 63 71 115 55 49 63 77 85 92 104 110 85 78 73 79 82 94 91 85
32 42 49 52 54 58 60 56 47 39 40 39 38 39 44 67 84 73 42 52 57 64 65 75 76 76 99 50 47 71 68 76 80 95 82 76 73 71 87 95 109 109 97
37 48 55 58 56 55 63 62 54 46 48 46 45 46 64 66 92 75 44 54 59 72 72 77 154 98 69 73 57 83 76 83 78 84 74 61 52 44 47 63 93 97 103
64 58 56 62 59 60 70 74 66 59 60 56 53 57 62 62 97 80 64 46 71 74 74 82 98 116 73 73 48 94 84 73 93 107 102 79 68 61 64 66 63 87 99
77 75 74 73 81 91 94 91 79 72 71 67 60 66 67 75 77 97 79 62 87 63 76 76 98 105 68 71 71 77 64 80 102 110 106 93 80 66 65 63 53 61 82
87 80 84 91 94 104 107 106 100 87 84 76 69 72 77 78 88 111 92 86 79 60 85 81 57 50 51 50 88 61 71 89 92 111 116 98 71 65 46 54 56 48 44
114 96 97 108 121 119 114 113 117 108 93 83 81 80 85 86 81 91 78 77 74 58 82 79 67 43 50 53 72 82 84 82 88 107 105 91 72 68 64 61 62 54 56
130 121 123 136 143 144 127 132 115 90 91 95 83 84 92 81 77 94 91 84 81 114 67 69 73 78 76 85 75 72 71 81 94 106 100 92 80 68 60 50 56 51 58
159 167 197 214 188 178 189 201 257 184 148 144 130 99 102 122 167 141 124 118 108 84 64 84 89 83 81 75 66 62 71 72 88 100 99 87 77 69 58 49 54 61 54
179 212 237 226 221 247 221 208 191 215 199 138 112 104 115 120 139 124 109 100 94 82 72 86 84 81 70 74 71 63 64 74 85 106 100 87 76 68 59 45 51 61 49
162 213 218 240 216 234 194 196 185 190 179 149 122 112 123 129 125 121 119 102 96 82 74 82 83 82 80 84 74 68 64 72 91 97 95 84 73 65 58 47 47 50 39
165 183 187 197 221 218 215 208 213 180 161 155 155 138 125 127 122 130 130 81 83 86 88 86 87 84 81 85 70 66 70 77 85 97 93 77 70 56 55 50 37 46 39
127 164 209 207 235 261 258 243 231 209 180 168 144 122 140 173 148 138 109 88 83 85 92 92 90 84 86 79 66 65 67 80 83 97 88 75 68 53 52 41 37 35 33
152 182 209 213 222 251 271 246 221 221 201 160 123 149 172 149 130 116 105 98 93 92 99 98 98 89 78 71 60 63 66 70 80 87 73 62 62 56 47 45 35 32 29
149 177 235 224 251 259 254 232 225 213 191 173 155 167 205 134 129 121 110 111 104 102 110 110 96 86 82 71 63 67 64 67 78 79 66 62 53 47 42 40 32 28 24
149 159 184 212 237 256 265 233 222 207 202 211 216 209 197 158 156 131 126 145 117 114 115 120 106 87 79 74 66 68 63 66 73 63 52 48 47 41 37 30 26 22 19
158 142 171 218 249 246 250 255 218 210 222 254 294 242 211 201 191 177 175 148 127 142 129 125 106 89 84 82 72 71 70 76 64 56 41 42 41 32 28 23 21 22 20
167 194 199 228 228 245 270 262 271 262 267 279 283 260 222 218 195 178 170 149 134 130 128 121 101 103 96 85 69 63 72 66 60 46 47 42 42 30 28 18 19 19 22
111 147 209 201 219 257 303 357 354 325 294 272 263 276 279 242 201 195 175 157 136 126 125 121 106 93 99 81 76 83 72 68 58 47 45 46 42 36 29 19 21 17 19
Wind_Speed
9 8 4 4 3 3 6 7 11 14 16 19 22 25 28 32 36 38 41 44 47 50 52 53 55 56 59 60 61 62 65 68 74 72 71 75 79 81 83 84 81 82 81
6 5 4 4 5 5 4 6 9 12 15 17 19 23 26 30 35 38 41 44 48 51 52 53 56 57 59 60 62 64 66 68 70 76 74 77 79 81 83 85 83 81 78
7 8 8 6 5 9 1 5 8 10 13 16 18 21 24 29 34 37 40 44 47 49 52 54 56 57 60 63 64 65 67 67 66 69 76 74 75 79 86 82 84 79 76
11 12 11 13 10 3 0 4 6 9 11 14 17 19 23 28 32 36 39 43 45 49 51 51 52 57 61 65 65 67 67 68 68 69 73 75 75 81 81 87 88 80 81
17 16 14 10 6 3 2 3 5 7 9 12 15 18 22 25 30 34 38 41 46 49 49 49 50 54 57 60 64 67 68 69 70 73 75 75 80 85 87 84 83 80 81
24 20 14 11 7 6 4 3 3 5 7 10 13 16 19 23 28 33 38 42 45 48 51 50 51 50 60 55 61 61 61 67 69 73 73 76 78 78 77 80 78 79 77
27 22 18 15 11 9 7 5 7 7 6 8 11 14 17 21 24 29 36 39 43 48 50 51 54 56 56 63 62 58 60 60 59 66 71 72 73 74 74 72 69 68 64
29 25 21 18 15 12 10 9 7 5 5 7 10 13 16 20 21 27 32 35 41 46 49 51 56 57 62 63 63 64 65 63 66 64 65 64 65 65 60 58 56 58 57
31 28 24 21 17 15 13 10 6 4 3 5 9 11 14 19 19 24 29 35 40 46 48 49 55 57 63 63 62 65 65 65 64 64 62 59 57 53 49 50 57 59 63
32 27 23 20 18 16 12 11 4 1 2 5 8 10 15 19 19 22 26 34 41 46 47 49 48 58 61 61 63 65 69 69 67 67 67 64 61 55 52 54 55 58 60
27 25 23 21 18 14 12 9 6 3 3 4 6 10 14 17 20 22 27 34 41 46 48 50 50 61 60 59 59 65 66 64 63 64 66 64 60 56 52 52 53 56 58
28 27 25 22 18 16 14 11 9 6 5 4 5 10 15 18 22 21 26 33 40 44 47 49 51 58 58 56 57 63 62 61 63 64 67 66 63 60 53 52 56 59 54
29 28 26 23 21 18 17 15 12 9 8 6 7 11 15 18 21 21 25 30 36 42 46 49 49 50 53 53 58 59 61 63 64 66 67 65 60 53 52 55 58 60 54
31 29 27 26 24 21 18 17 15 13 11 9 10 12 16 18 20 23 25 29 33 37 44 45 48 47 49 53 58 60 61 62 63 66 64 61 55 54 54 57 60 60 58
33 31 29 26 27 23 21 19 17 15 13 11 12 14 15 19 20 22 26 30 35 41 45 46 50 52 56 58 59 60 61 63 65 64 64 62 59 57 55 56 59 59 57
34 32 31 28 27 26 24 24 28 23 16 18 18 18 21 26 20 20 24 31 35 38 41 46 50 52 57 59 60 60 62 63 64 63 63 61 59 57 54 53 55 59 55
35 33 32 30 29 28 26 26 24 27 24 18 19 18 19 20 18 19 23 28 31 35 40 45 48 51 55 55 56 59 62 61 61 61 61 59 57 54 51 50 53 56 52
34 33 32 32 30 29 27 27 25 23 22 19 20 18 16 15 16 18 22 27 32 33 37 42 46 49 52 53 54 56 57 59 61 60 60 58 55 52 50 50 51 52 49
34 32 32 32 30 28 26 26 25 24 22 20 19 18 15 15 15 16 19 27 32 34 36 39 43 47 49 51 51 53 55 57 58 58 57 56 54 50 47 46 46 48 45
36 33 32 30 29 28 25 24 24 24 23 21 19 17 13 13 17 17 19 23 28 31 33 37 40 45 47 48 48 50 53 56 57 56 55 53 51 47 45 43 44 45 42
38 36 33 31 31 30 28 26 24 24 23 21 19 16 12 12 15 16 19 21 24 27 31 34 38 42 44 45 46 49 52 55 55 54 53 50 48 45 42 39 41 40 39
38 37 35 34 32 31 29 27 25 24 23 22 21 19 13 14 17 18 19 20 22 26 29 31 35 38 41 42 44 46 50 52 52 51 49 48 45 42 40 37 39 38 36
39 38 38 38 35 32 30 27 24 23 23 23 21 20 17 17 17 17 19 20 21 24 25 29 32 35 37 40 41 43 46 47 47 45 45 45 42 39 36 34 36 37 36
41 39 36 37 36 33 29 27 24 22 22 22 22 21 18 16 15 15 18 18 20 21 24 26 29 32 35 37 38 40 41 43 43 40 38 39 39 36 33 32 34 35 34
39 41 39 36 36 35 32 30 28 25 23 22 21 20 18 16 16 14 14 16 18 19 21 22 26 29 30 32 35 37 39 40 39 37 35 34 35 32 30 30 31 33 33
42 41 41 38 38 38 36 35 32 28 24 22 21 20 19 15 12 10 11 13 16 17 19 21 23 23 27 30 31 34 36 37 38 37 34 32 34 31 28 28 29 30 29
Wind_Direction
264 272 264 260 281 339 337 1 350 354 25 32 26 21 18 17 12 12 13 14 14 15 15 14 11 11 9 8 7 5 2 360 353 355 356 355 355 354 353 352 351 350 349
243 226 187 210 248 275 330 355 11 34 27 23 23 25 21 14 9 10 14 16 14 13 13 13 11 11 10 9 7 5 3 1 357 354 356 357 357 357 355 353 353 352 352
211 199 169 197 225 120 51 22 36 31 18 20 30 25 19 12 11 17 19 16 15 15 14 13 11 11 9 7 7 5 3 2 1 357 356 358 358 359 356 357 356 357 357
179 175 177 152 144 221 18 49 43 29 28 25 20 20 21 22 20 19 19 17 16 14 13 15 15 12 9 7 6 4 3 2 1 0 358 359 360 360 359 357 357 1 359
167 168 169 180 207 187 119 76 37 32 21 17 18 23 28 26 20 20 18 16 12 12 14 16 15 13 12 10 7 5 4 3 2 1 359 360 359 359 359 359 359 1 2
162 165 180 191 182 161 154 116 61 47 32 21 22 31 37 31 24 19 13 12 12 11 11 13 13 14 10 11 8 7 6 4 3 1 1 359 359 0 1 0 2 4 5
164 166 170 170 169 168 157 138 118 99 47 31 36 47 43 30 33 24 15 13 11 8 9 10 10 9 10 7 7 8 8 7 6 3 0 0 359 0 0 2 6 7 8
169 169 168 170 170 165 157 146 128 102 77 52 41 41 37 26 30 22 17 14 10 7 8 9 8 8 7 7 7 7 7 7 5 5 3 1 1 2 5 7 7 9 11
172 172 172 174 174 170 165 160 146 121 73 30 31 40 34 21 29 20 16 10 8 5 6 8 7 8 6 6 7 6 6 6 6 6 5 4 4 5 8 10 11 11 10
178 179 182 185 184 182 180 174 185 205 4 15 22 27 13 15 21 19 16 8 4 4 6 7 11 7 6 7 7 6 4 5 6 6 7 8 10 12 15 14 12 10 10
187 191 189 192 196 200 197 206 213 226 311 351 11 12 10 10 12 14 11 5 3 3 4 6 7 5 6 7 8 7 6 6 7 8 8 10 12 15 16 15 15 12 11
190 190 194 201 209 218 215 222 221 238 273 314 346 353 357 1 0 9 8 4 3 3 4 5 5 4 6 8 8 7 8 9 9 9 9 10 11 12 15 15 14 13 17
195 196 200 205 210 217 215 221 231 240 269 289 317 336 346 354 358 3 4 3 4 3 5 4 6 7 8 9 8 9 10 10 10 9 9 10 11 14 15 15 16 15 19
197 201 203 204 210 221 225 228 237 245 256 280 305 325 339 348 353 359 1 2 3 5 5 7 7 9 10 9 9 10 10 10 10 9 9 10 13 15 16 15 14 15 17
201 205 204 212 210 220 225 231 235 245 254 277 301 320 332 339 346 354 358 360 1 3 3 5 6 7 7 7 8 9 10 10 10 10 10 11 12 14 16 16 16 16 17
199 211 218 223 221 228 232 249 270 273 261 286 307 318 328 334 349 355 357 358 1 3 4 3 4 6 5 5 6 8 9 10 10 11 11 12 12 14 16 18 19 18 20
206 212 221 223 225 229 232 239 243 269 280 277 294 307 321 334 347 354 356 358 1 3 1 3 3 5 4 6 7 7 8 9 10 12 12 13 14 16 19 20 21 22 26
215 217 221 223 227 230 233 239 244 245 247 266 285 298 312 328 340 349 353 356 356 359 360 1 3 4 5 6 7 7 9 9 10 11 13 14 16 18 21 23 24 27 32
220 226 228 230 229 231 237 244 246 250 254 266 280 287 299 317 332 341 349 348 351 354 357 0 3 4 5 6 8 8 9 9 10 12 14 15 18 21 24 27 29 33 40
228 228 224 229 234 234 240 245 246 248 253 260 269 278 290 308 319 328 336 343 348 352 356 359 2 3 5 7 8 9 10 10 11 14 15 17 20 24 28 30 34 37 46
237 238 231 237 238 237 242 245 248 247 248 254 264 270 270 291 312 324 334 341 347 351 355 358 1 3 6 7 8 9 10 9 12 14 16 19 22 26 31 35 39 44 52
238 240 233 238 243 242 245 250 252 249 249 254 267 277 258 293 313 323 333 341 348 352 357 0 2 4 6 7 9 10 10 10 13 15 18 20 24 29 34 40 43 49 57
240 241 239 245 246 247 246 248 250 251 252 256 262 273 264 281 302 318 330 340 345 351 358 1 2 4 7 8 11 12 12 13 16 19 20 22 26 32 38 45 47 52 59
244 243 241 244 244 243 239 238 244 249 254 256 258 266 266 272 288 308 325 337 345 351 356 359 2 4 7 9 13 13 15 16 18 21 24 25 28 35 43 49 51 55 63
251 248 247 244 243 241 240 238 243 250 255 258 258 262 266 273 284 298 316 332 341 348 354 359 3 7 9 11 13 14 16 18 20 23 27 31 31 38 48 52 53 55 65
259 256 252 251 251 246 242 241 243 246 250 257 259 261 262 255 261 278 304 321 334 342 351 358 2 8 11 14 17 18 19 20 21 23 27 32 32 41 51 52 53 51 63